Terug naar catalogus

STARLINK-37838

ActiefCommunicatieSSO
NORAD 69654·PAYLOAD·🇺🇸 United States

Gelanceerd Jun 21, 2026 vanaf Vandenberg Space Force Base

Loading…

Volgende Passages (komende 24 uur)

TLE

VersSource: CelesTrak SupGP

Epoch: Sep 14, 2026, 23:06 UTC

1 69654C 26143F   26257.96298611  .00033703  00000+0  10464-2 0  2579
2 69654  97.2843 301.2772 0000959  94.1669  25.0150 15.33418303    10

Volg STARLINK-37838 in realtime met AllMySat

Download on the App Store